Probability
26 65 100 97 97 97 100 100 100 100 100 100 100 100 100 100 100 100 100 100 100 97 100 100 97 100 100 100 100 100 100 100 100 100 100 100 100 97 94 90 94 87 90
26 74 100 100 100 97 100 100 97 97 97 97 97 97 97 97 97 100 100 100 100 100 100 100 100 100 100 100 100 100 100 100 100 100 97 100 100 100 97 97 97 97 94
35 65 97 100 100 100 100 100 100 97 97 97 97 97 97 97 94 97 100 100 100 100 97 97 97 97 100 100 100 100 100 100 100 100 100 97 97 100 97 100 97 97 94
29 65 71 100 100 100 100 100 100 100 100 94 94 94 97 97 97 97 94 100 100 97 97 97 97 97 97 100 100 97 100 100 97 97 87 84 87 97 97 97 97 94 97
35 58 87 100 97 97 100 100 100 100 100 97 97 97 97 97 97 100 97 100 97 97 97 97 97 94 94 97 97 97 94 94 90 84 87 90 100 97 97 94 87 94 97
42 52 77 97 97 97 100 100 100 100 100 100 100 97 94 97 97 97 94 90 97 94 97 97 94 90 94 94 94 94 90 90 90 84 84 87 90 90 90 97 90 90 94
29 42 68 87 84 94 94 90 94 94 97 97 100 97 94 97 94 94 90 90 94 94 94 90 84 87 90 90 87 90 87 87 81 87 84 84 97 84 90 87 90 90 87
29 23 35 58 74 74 77 81 77 81 81 84 94 97 97 97 94 94 90 87 90 90 87 84 77 77 84 77 87 90 84 87 58 58 81 87 94 87 90 87 87 90 87
13 16 19 19 26 29 42 58 71 68 71 71 87 97 100 100 97 90 90 87 90 90 87 84 81 68 74 71 71 81 74 74 65 68 61 81 87 90 87 90 87 87 84
0 6 6 16 16 16 16 16 26 42 58 65 77 90 94 97 94 94 90 90 90 90 90 84 77 68 68 71 65 74 61 61 61 68 68 74 84 87 87 87 87 84 87
0 0 0 3 3 3 6 3 19 19 26 42 55 68 84 87 87 87 81 87 87 90 94 84 84 74 65 74 71 74 61 58 52 58 58 74 84 90 87 81 87 87 87
0 0 3 3 3 3 0 0 16 16 16 16 26 35 65 71 87 68 48 84 87 90 87 90 87 84 61 61 65 52 32 45 55 42 45 68 74 84 84 87 84 87 90
0 0 0 0 3 6 6 6 10 10 26 3 3 16 32 52 71 71 84 84 81 84 87 87 84 84 65 45 19 13 10 19 32 19 48 58 68 71 87 87 84 87 81
0 0 0 0 0 0 6 6 6 10 6 3 6 6 19 35 45 52 71 68 71 84 87 87 84 65 55 26 10 0 0 10 10 13 58 61 58 77 87 87 84 77 81
0 0 0 0 0 0 6 3 3 3 0 0 3 10 13 29 23 35 52 74 61 71 77 90 65 58 52 23 13 3 0 0 0 6 23 48 52 77 84 87 81 84 77
0 0 0 0 0 0 3 3 6 3 0 3 0 0 6 10 32 35 32 48 55 55 42 77 61 68 58 35 23 10 3 0 0 0 6 42 65 87 90 77 87 84 84
0 0 0 0 0 0 0 3 3 6 3 3 3 3 6 10 13 19 32 29 29 42 32 55 39 48 35 32 16 10 13 3 0 0 0 19 32 42 87 81 84 90 87
0 0 0 0 0 0 0 0 0 3 3 3 3 3 3 6 10 13 23 32 32 45 52 58 55 42 29 32 26 23 13 29 0 0 0 0 16 10 61 87 84 87 90
0 0 0 0 0 0 0 0 0 0 3 3 3 3 6 6 6 16 29 35 32 35 39 32 45 42 19 29 19 23 13 10 3 0 0 0 0 19 16 68 81 84 87
0 0 0 0 0 0 0 0 0 0 3 3 3 3 3 6 3 6 26 26 32 35 42 35 32 52 42 19 3 3 16 10 3 0 0 0 0 0 0 13 52 45 81
0 0 0 0 0 0 0 0 0 0 0 0 0 3 3 3 3 3 13 16 39 35 42 39 45 32 39 13 10 6 10 3 10 3 3 0 3 6 0 6 23 42 61
0 0 0 0 0 0 0 0 0 3 3 0 3 6 3 3 3 3 6 16 29 35 35 29 29 39 29 10 16 6 3 10 13 0 6 13 0 16 10 0 0 26 32
0 0 0 0 0 0 0 3 3 3 3 3 0 0 3 3 3 6 3 10 23 26 32 29 29 32 32 10 6 6 0 0 16 10 0 0 3 13 10 3 0 0 3
0 0 0 0 0 0 0 0 0 0 0 0 0 3 3 3 3 3 3 6 10 13 19 23 16 32 32 26 3 3 0 6 3 10 3 0 3 10 10 10 3 0 3
0 0 0 0 0 0 0 0 0 0 0 0 0 3 3 3 0 0 6 6 6 16 13 23 26 19 26 32 16 3 0 0 0 3 6 0 10 6 13 16 13 16 6
0 0 0 0 0 0 0 0 0 0 0 0 0 0 3 3 0 3 6 10 13 10 10 16 26 29 32 19 26 13 3 3 3 0 0 0 10 13 13 16 23 26 29
Height
5914 5913 5913 5912 5912 5911 5911 5911 5910 5910 5910 5909 5909 5908 5908 5908 5908 5907 5908 5908 5908 5908 5908 5908 5909 5909 5909 5910 5910 5910 5911 5911 5911 5911 5911 5910 5910 5910 5909 5909 5908 5907 5906
5913 5913 5912 5912 5911 5911 5911 5910 5910 5909 5909 5909 5908 5908 5907 5907 5907 5906 5906 5906 5907 5907 5907 5907 5907 5907 5908 5908 5908 5908 5909 5909 5909 5909 5909 5909 5909 5908 5908 5908 5907 5907 5906
5912 5911 5911 5910 5910 5910 5910 5909 5909 5909 5908 5908 5907 5907 5906 5906 5906 5905 5905 5905 5905 5905 5905 5906 5906 5906 5906 5906 5906 5906 5907 5907 5907 5907 5907 5907 5907 5907 5907 5906 5906 5906 5905
5911 5910 5909 5908 5908 5908 5908 5908 5908 5907 5907 5907 5906 5906 5906 5905 5905 5904 5904 5904 5904 5904 5904 5904 5904 5904 5904 5904 5905 5905 5905 5905 5905 5905 5905 5905 5905 5905 5905 5905 5905 5905 5905
5909 5908 5907 5906 5906 5906 5906 5906 5906 5906 5905 5905 5905 5905 5904 5904 5904 5903 5903 5903 5903 5903 5903 5903 5903 5903 5903 5903 5903 5903 5903 5903 5903 5903 5903 5903 5903 5903 5903 5904 5904 5904 5904
5906 5905 5904 5903 5903 5903 5903 5903 5903 5903 5903 5903 5903 5903 5903 5902 5902 5902 5902 5902 5902 5902 5902 5902 5902 5901 5901 5901 5901 5902 5902 5902 5902 5902 5902 5902 5902 5902 5902 5902 5902 5903 5903
5903 5902 5901 5900 5900 5900 5900 5900 5899 5900 5900 5900 5900 5900 5900 5900 5900 5900 5900 5900 5900 5900 5900 5900 5900 5900 5900 5900 5900 5900 5900 5900 5900 5900 5900 5900 5900 5900 5900 5901 5901 5902 5902
5901 5899 5898 5897 5896 5896 5896 5896 5896 5896 5896 5896 5896 5897 5897 5897 5898 5898 5898 5898 5898 5899 5899 5899 5899 5899 5899 5899 5899 5899 5899 5899 5899 5899 5899 5899 5899 5899 5899 5900 5900 5901 5902
5898 5896 5895 5894 5892 5892 5892 5891 5891 5891 5891 5892 5892 5893 5893 5894 5894 5895 5895 5896 5896 5896 5897 5897 5897 5897 5897 5897 5897 5897 5897 5897 5898 5898 5898 5898 5898 5898 5899 5899 5900 5900 5901
5894 5893 5891 5890 5889 5888 5888 5888 5887 5887 5887 5887 5887 5888 5889 5889 5890 5891 5891 5892 5893 5893 5894 5894 5895 5895 5895 5896 5896 5896 5896 5896 5896 5896 5896 5897 5897 5898 5898 5899 5899 5900 5901
5889 5888 5887 5886 5884 5884 5883 5883 5882 5882 5882 5882 5882 5882 5883 5884 5885 5886 5887 5888 5889 5890 5891 5891 5892 5893 5893 5894 5894 5894 5894 5895 5895 5895 5895 5896 5896 5897 5897 5898 5899 5900 5900
5883 5882 5880 5880 5879 5878 5877 5877 5877 5877 5877 5877 5877 5877 5878 5879 5880 5881 5883 5884 5885 5886 5887 5888 5889 5890 5890 5891 5892 5892 5893 5893 5893 5894 5894 5895 5895 5896 5897 5897 5898 5899 5900
5876 5875 5873 5872 5871 5871 5870 5870 5870 5870 5871 5871 5871 5872 5873 5874 5875 5876 5877 5879 5880 5881 5883 5884 5885 5886 5887 5888 5889 5890 5891 5891 5892 5892 5893 5893 5894 5895 5896 5897 5897 5898 5899
5868 5866 5865 5864 5863 5862 5862 5862 5862 5863 5863 5864 5865 5866 5866 5867 5869 5870 5871 5873 5875 5876 5878 5879 5881 5882 5883 5885 5886 5887 5888 5889 5890 5890 5891 5892 5893 5893 5894 5895 5896 5897 5898
5860 5858 5856 5855 5854 5854 5853 5853 5854 5855 5855 5856 5858 5858 5860 5861 5863 5864 5866 5867 5869 5871 5873 5874 5876 5878 5879 5880 5882 5883 5885 5886 5887 5888 5889 5890 5891 5892 5893 5894 5895 5896 5897
5852 5850 5848 5847 5845 5845 5844 5844 5845 5845 5847 5848 5849 5850 5852 5853 5855 5858 5860 5861 5863 5865 5867 5869 5871 5873 5874 5876 5877 5879 5881 5883 5884 5885 5887 5888 5889 5890 5891 5892 5894 5895 5896
5845 5842 5840 5839 5837 5836 5836 5835 5836 5836 5837 5838 5840 5841 5843 5845 5847 5850 5853 5855 5856 5858 5860 5862 5864 5866 5869 5871 5872 5874 5876 5878 5880 5882 5883 5885 5886 5888 5889 5890 5892 5893 5894
5839 5836 5834 5831 5829 5828 5827 5827 5827 5828 5828 5829 5831 5832 5834 5836 5838 5841 5844 5847 5849 5851 5854 5856 5858 5860 5862 5865 5867 5869 5871 5873 5876 5878 5880 5881 5883 5885 5886 5888 5889 5891 5892
5834 5831 5828 5825 5823 5821 5820 5819 5819 5819 5820 5821 5822 5823 5825 5827 5829 5832 5835 5838 5841 5843 5846 5849 5851 5853 5856 5858 5861 5863 5865 5868 5871 5873 5875 5877 5879 5881 5883 5885 5886 5888 5890
5829 5826 5822 5820 5817 5815 5814 5813 5813 5813 5813 5813 5814 5815 5816 5818 5820 5823 5826 5829 5832 5835 5838 5841 5844 5846 5849 5852 5854 5857 5859 5862 5865 5868 5870 5873 5875 5877 5879 5881 5883 5885 5886
5826 5822 5818 5815 5813 5811 5809 5808 5807 5806 5806 5806 5806 5807 5808 5810 5812 5814 5817 5820 5823 5826 5829 5832 5836 5838 5841 5845 5847 5850 5853 5855 5859 5862 5865 5868 5870 5873 5875 5877 5879 5881 5883
5823 5819 5815 5812 5809 5807 5805 5803 5802 5801 5800 5799 5799 5799 5800 5802 5804 5806 5808 5811 5814 5817 5820 5823 5827 5830 5834 5837 5840 5842 5846 5849 5852 5855 5859 5862 5864 5867 5870 5872 5874 5877 5879
5821 5817 5812 5809 5806 5804 5802 5800 5798 5796 5795 5794 5793 5793 5794 5795 5796 5798 5800 5802 5805 5808 5811 5814 5818 5822 5825 5828 5832 5835 5839 5842 5845 5848 5851 5855 5858 5861 5864 5866 5869 5871 5874
5820 5816 5811 5807 5804 5801 5799 5796 5794 5792 5791 5789 5788 5788 5788 5789 5790 5791 5792 5794 5796 5799 5802 5805 5808 5812 5816 5820 5823 5827 5831 5834 5837 5841 5844 5847 5851 5854 5857 5860 5863 5866 5868
5820 5815 5811 5807 5803 5800 5797 5794 5792 5789 5787 5785 5784 5783 5783 5783 5783 5784 5785 5787 5789 5791 5793 5796 5799 5803 5807 5811 5814 5818 5822 5825 5829 5833 5837 5840 5844 5847 5850 5853 5857 5860 5862
5820 5816 5811 5807 5803 5799 5796 5792 5789 5787 5784 5782 5780 5779 5778 5778 5778 5778 5779 5780 5781 5783 5785 5787 5790 5793 5797 5801 5805 5809 5813 5817 5821 5825 5829 5832 5836 5839 5843 5846 5849 5853 5855
Wind_Speed
3 3 4 4 4 5 5 6 6 7 8 8 8 8 8 8 8 9 9 9 9 9 9 9 10 11 11 11 11 11 11 11 11 11 10 10 10 10 9 9 8 8 8
5 5 5 5 5 6 6 6 7 7 7 8 8 8 8 7 7 7 8 8 9 9 9 9 9 10 10 10 11 11 11 12 12 11 11 11 10 10 10 9 8 7 7
7 7 7 7 7 7 7 7 7 7 8 8 8 8 8 7 7 7 7 7 8 8 8 8 9 9 9 10 10 10 10 11 11 11 11 10 10 10 9 8 7 7 6
8 9 9 9 9 9 9 9 9 9 8 8 8 8 8 8 8 7 7 7 7 7 7 8 8 8 8 8 8 9 9 9 9 10 10 9 9 9 9 8 7 6 5
9 10 11 11 11 11 11 10 10 10 10 10 9 9 9 9 8 8 7 7 7 7 7 7 7 7 7 7 7 7 7 7 7 8 8 8 8 8 7 7 6 5 4
10 11 13 13 13 13 13 13 12 12 12 11 11 10 10 9 9 9 8 7 7 7 6 6 7 7 7 7 7 6 6 6 6 6 6 6 6 6 6 6 6 5 3
12 13 13 13 14 15 15 15 15 15 14 14 13 12 12 11 11 10 9 9 8 7 7 7 7 7 7 7 6 6 6 5 5 5 5 5 5 5 5 5 5 5 4
15 15 14 14 14 15 16 18 17 16 16 16 15 14 14 14 13 12 12 11 10 9 8 7 7 7 7 7 6 6 6 5 5 5 5 5 4 4 4 4 4 5 4
18 18 16 15 15 16 17 18 19 18 18 18 18 17 17 17 16 15 14 14 12 11 10 9 8 8 8 7 6 6 6 5 5 5 5 4 4 4 4 4 5 5 4
21 21 21 20 19 18 18 19 21 21 20 20 20 20 19 18 18 18 17 16 15 14 12 11 10 10 9 8 7 6 6 6 5 5 5 5 4 4 5 5 5 5 5
25 26 26 25 25 24 23 22 22 22 22 21 21 21 21 20 20 20 20 19 18 16 15 14 13 12 11 10 9 8 7 6 6 6 6 6 5 5 6 6 6 6 5
30 30 31 31 30 29 28 27 26 26 25 24 23 23 23 22 22 21 21 21 21 19 18 16 15 14 13 12 12 10 9 8 8 7 7 7 7 6 6 6 6 7 6
33 34 34 33 33 33 33 32 31 30 29 28 27 25 24 24 23 23 23 23 23 22 21 19 18 17 16 14 14 13 11 10 10 9 9 8 8 7 7 7 7 7 7
35 36 36 36 36 36 35 35 35 34 33 32 31 30 29 28 26 24 25 23 24 24 23 22 21 20 18 17 16 16 14 13 11 11 10 10 10 9 9 8 8 8 7
34 35 35 35 36 37 37 37 36 37 36 36 36 34 33 32 31 28 26 26 26 27 26 24 23 23 22 20 19 18 17 15 14 13 12 12 12 11 11 10 9 9 9
30 31 32 33 34 34 35 36 37 37 38 38 38 38 37 36 35 34 32 30 29 28 29 28 27 25 24 23 22 21 20 18 17 15 15 14 14 13 13 11 11 10 10
27 28 29 29 30 31 32 33 35 36 37 38 38 39 38 38 38 37 36 35 33 31 30 30 29 28 27 26 25 24 23 22 20 19 17 17 16 15 15 14 13 12 11
24 25 25 26 26 27 28 30 31 33 34 36 37 37 38 38 39 38 38 37 36 35 33 32 31 30 29 28 28 27 26 25 24 22 20 19 18 17 16 16 15 14 13
23 23 23 24 24 24 24 25 27 28 30 32 33 35 37 38 38 39 38 39 39 38 36 35 33 32 30 30 30 29 28 27 26 24 23 22 21 19 19 18 18 17 16
21 21 20 20 20 20 20 21 23 25 27 28 30 32 34 35 37 37 38 39 39 39 37 37 36 34 32 31 31 32 31 29 29 27 26 25 24 22 21 21 20 19 18
20 20 18 17 17 17 17 18 19 21 23 25 27 29 30 32 34 36 37 39 40 40 40 39 38 38 35 33 32 32 31 31 30 30 29 27 27 26 24 23 22 21 20
20 18 17 15 15 15 15 16 17 18 19 20 22 25 28 30 32 33 35 37 40 41 41 41 40 39 38 37 34 33 33 33 32 32 31 30 30 29 27 26 25 24 23
18 17 16 15 15 14 14 15 15 16 16 17 19 21 23 26 29 31 33 35 37 39 40 41 42 41 40 39 38 35 34 33 33 34 33 32 32 31 30 29 29 27 26
18 18 17 16 15 14 14 14 14 14 14 15 17 18 20 22 26 29 31 33 35 37 39 41 42 43 43 41 41 39 36 36 35 35 34 34 35 34 33 32 32 30 29
18 18 18 16 15 15 14 13 12 13 13 13 14 16 18 20 23 26 29 31 33 35 37 40 41 42 43 43 43 42 40 38 36 35 35 35 35 36 34 34 34 33 32
19 19 19 18 17 16 15 14 13 13 13 13 13 14 15 17 20 23 26 28 30 32 34 37 39 40 42 44 44 44 43 41 39 37 36 36 36 37 37 36 35 35 34
Wind_Direction
197 184 175 168 167 167 171 175 176 176 175 176 178 180 185 189 195 201 206 209 211 213 219 226 232 236 239 242 245 251 255 259 264 269 275 280 284 292 300 308 315 322 330
232 220 210 201 198 196 194 192 191 190 186 184 183 183 184 187 192 198 205 210 214 217 224 229 232 235 238 241 247 251 254 257 262 267 273 276 279 283 287 296 305 312 322
249 239 231 222 217 215 212 209 208 205 200 197 195 193 191 191 193 197 203 210 215 219 223 228 231 235 238 243 247 249 252 254 259 263 268 272 274 276 280 285 293 303 312
263 254 247 238 231 228 226 222 219 217 212 209 208 206 203 201 200 200 202 206 210 215 219 225 229 234 236 240 244 246 249 253 258 261 265 268 269 269 270 274 281 294 304
274 264 257 249 240 236 235 234 230 226 223 221 218 215 212 210 208 208 208 209 211 214 217 221 226 230 232 235 238 241 247 253 257 260 262 263 264 263 263 263 265 272 283
283 275 266 258 250 241 237 237 236 233 232 229 226 224 221 218 217 216 215 216 216 216 217 221 225 227 228 231 234 237 242 249 253 255 255 255 258 258 255 254 250 247 249
294 291 284 267 258 251 246 241 240 238 235 233 230 229 228 226 224 223 222 221 221 220 220 222 226 228 230 232 233 233 238 242 242 244 247 248 250 251 244 237 226 217 213
290 292 291 277 264 257 255 250 246 244 240 238 236 235 233 232 230 229 227 226 226 226 225 225 227 230 232 233 234 234 234 233 232 236 238 238 237 231 218 210 202 200 198
288 288 285 284 276 265 258 254 251 248 247 244 241 239 237 236 235 233 232 230 229 229 229 229 230 232 233 234 234 233 231 229 228 229 228 228 220 208 196 190 190 188 187
281 280 280 279 277 273 270 266 260 253 250 248 244 242 242 241 239 237 236 233 232 231 231 232 233 235 236 236 237 235 232 228 224 221 219 215 207 198 189 182 179 178 173
278 275 274 273 272 271 271 270 269 262 256 253 250 245 244 245 244 241 239 236 234 234 232 234 235 236 237 238 238 237 235 231 224 219 215 209 201 192 186 182 179 177 173
277 274 273 271 269 268 266 266 264 262 260 258 255 250 246 245 245 241 240 239 237 236 235 235 236 237 238 238 238 237 235 232 227 222 216 209 201 194 188 184 181 179 180
277 275 272 271 269 267 266 265 264 262 260 258 255 252 249 248 247 244 240 240 240 239 238 237 237 238 239 239 238 237 235 233 230 225 217 210 205 201 196 191 188 186 186
278 276 274 272 270 269 267 265 263 262 260 257 254 255 252 250 250 251 242 240 240 239 239 240 239 239 239 240 239 237 234 232 231 228 221 215 210 207 201 198 197 195 192
281 279 277 274 271 269 267 265 264 262 261 259 258 256 256 253 252 252 248 243 241 240 239 240 242 241 241 240 239 236 234 232 231 230 225 220 216 212 206 205 204 202 198
285 282 279 276 274 271 268 266 263 261 259 258 257 257 256 255 252 251 250 246 246 245 241 240 241 241 241 240 239 237 234 232 231 231 227 224 220 216 212 209 207 205 203
292 289 286 282 278 274 270 266 263 261 259 256 256 256 255 254 252 250 248 247 246 247 244 242 242 241 241 240 239 237 235 234 232 230 229 226 223 220 217 213 211 209 208
299 296 292 288 283 278 274 269 265 262 260 258 256 255 253 252 251 249 247 246 246 246 245 243 241 241 242 242 239 237 236 235 234 232 229 225 225 224 221 219 216 213 212
308 303 298 292 288 283 278 273 268 264 261 259 257 254 253 251 250 248 247 246 245 244 244 242 241 242 244 242 240 239 238 235 234 232 229 227 226 226 225 223 221 218 216
318 314 307 300 294 288 283 278 272 267 263 260 258 255 252 250 248 247 245 244 244 243 242 242 241 241 242 241 240 240 238 236 234 231 229 228 228 229 228 226 224 221 220
325 321 316 310 303 296 290 285 278 272 267 264 260 256 252 249 248 246 245 243 242 242 242 242 241 240 240 241 240 239 237 235 234 232 231 230 230 229 228 228 226 224 223
333 330 324 319 315 308 300 292 285 280 273 267 263 258 253 250 247 245 245 244 242 241 240 240 240 240 239 239 237 236 236 235 234 234 234 233 231 229 229 229 228 227 225
346 344 340 332 325 319 311 303 296 289 279 272 267 262 256 251 248 246 246 244 243 242 242 241 240 239 239 239 237 236 235 234 234 234 234 233 232 231 230 230 230 229 228
355 354 349 343 337 330 322 315 308 302 291 281 275 267 260 255 251 248 247 246 245 244 243 242 241 240 240 239 237 235 235 235 234 234 235 234 233 232 231 231 232 231 231
2 1 359 357 353 347 341 334 324 314 305 296 286 275 266 260 255 252 249 248 247 247 245 244 244 241 240 238 238 236 235 235 235 234 234 235 234 233 233 233 233 233 233
9 9 9 8 6 2 359 352 343 331 320 308 297 286 275 267 260 255 252 250 249 248 246 245 245 243 241 239 238 237 236 235 233 234 234 235 235 234 234 235 235 234 235